COSMOS 1275 DEB, 12780

Orbit data source: Space-Track

COSMOS 1275 DEB, 12780 is space debris in LEO originally from a launch on Thu, 04 Jun 1981 UTC launched from the Plesetsk Missile And Space Complex (PKMTR). Debris objects in space refer to the collection of defunct objects orbiting the Earth. Examples of debris include non-operational satellites, rocket bodies, and fragments generated from explosions, collisions, or faulty payload assembly.

Loading next visibility...
Identifier
12780, 1981-053DW
Orbit
LEO
Country
Flag of CISCIS
Related business
Manufacturer
Unknown
Mission
Spacecraft
Bus & Motor
Unknown
Mass
Unknown
Launch date (UTC)
1981-06-04 (45 years ago)
Launch vehicle
Unknown
Launch site
Plesetsk Missile And Space Complex (PKMTR)
Object type
Payload
Rocket body
Debris
Shape & HBR
Unknown shape, 0.3 m
Radar Cross Section
Medium (>0.1 m² and <1 m²)

Expand to show TLE details & history
Last TLE update: 8 hours ago

TLE from 8 hours ago
0 COSMOS 1275 DEB
1 12780U 81053DW  26119.28079666  .00000744  00000-0  57451-3 0  9998
2 12780  82.9436 111.7237 0019921 286.3981  85.8212 13.91525567258323
Epoch: 2026-04-29T06:44Z
TLE epoch observation values (Epoch: 2026-04-29T06:44:20.831Z)
Latitude
12.31039°
Longitude
154.9327°
Altitude
924.425 km
Speed
7.391 km/s
True Right ascension
07h 33m 03s
True Declination
12° 14' 26"
Sunlit
Object was in daylight at epoch
Visualization orbit readout
Latitude
Unknown
Longitude
Unknown
Altitude
Unknown
Speed
Unknown
Apparent Right ascension
Unknown
Apparent Declination
Unknown
Sunlit
N/A
Visualization observer readout
Local Sidereal Time
22:02:24
Azimuth
Unknown
Elevation
Unknown
Doppler factor
Unknown
Orbital elements
Apogee altitude
934.955 km
Perigee altitude
905.876 km
Semi-major axis
7,298.552 km
Eccentricity
0.00199
Inclination
82.9436°
RAAN
111.7237°
Arg. of periapsis
286.3981°
True anomaly
86.04891°
Mean anomaly
85.8212°
Eccentric anomaly
85.93505°
Mean motion
3.48087 °/min
Orbital period
103.42 mins
BSTAR
0.00057451
Loading maneuver chart data...
Computing Atmospheric mass density...
Loading historical data...
Loading historical data...
Loading historical data...
Loading historical data...
Loading historical data...
Loading historical data...
Loading historical data...

Documentation

Showing up to 5 results
|